Regional Weather Roundup
Issued by NWS

Home | Current Version | Previous Version | Text Only | Print | Product List | Glossary On
Versions: 1 2 3 4 5 6 7 8 9 10 11 12 13 14 15 16 17 18 19 20 21 22 23 24 25 26 27 28 29 30 31 32 33 34 35 36 37 38 39 40 41 42 43 44 45 46 47 48 49 50
000
ASUS45 KREV 172010
RWRNV
NEVADA REGIONAL WEATHER ROUNDUP
NATIONAL WEATHER SERVICE RENO NV
1200 PM PST FRI NOV 17 2017

NOTE: "FAIR" INDICATES FEW OR NO CLOUDS BELOW 12,000 FEET WITH NO
SIGNIFICANT WEATHER AND/OR OBSTRUCTIONS TO VISIBILITY.

NVZ001-003-004-172100-
WESTERN NEVADA

CITY           SKY/WX    TMP DP  RH WIND       PRES   REMARKS
RENO           MOSUNNY   46  23  40 N14       30.16R
CARSON CITY    FAIR      45  23  42 NW9       30.15S
MINDEN         FAIR      45  23  42 W10G16    30.14S
PYRAMID LAKE     N/A     41 N/A N/A N12         N/A
FALLON         MOSUNNY   47  23  38 N20       30.15R
LOVELOCK       PTSUNNY   46  26  45 W16       30.16R
HAWTHORNE      CLOUDY    43  28  56 N17       30.14R
$$

NVZ002-CAZ072-073-172100-
NORTHERN AND CENTRAL SIERRA

CITY           SKY/WX    TMP DP  RH WIND       PRES   REMARKS
S. LAKE TAHOE  MOSUNNY   38  21  50 S8        30.13S
SQUAW VLY 8000 NOT AVBL
SUSANVILLE     SUNNY     43  23  45 NW3       30.18R
BLUE CANYON    SUNNY     40  29  64 CALM      30.16S
MAMMOTH LAKES  FAIR      49   7  17 NW17G32   30.07R
$$

NVZ030-031-036-172100-
NORTHERN NEVADA

CITY           SKY/WX    TMP DP  RH WIND       PRES   REMARKS
ELKO           FLURRIES  34  30  85 S10       30.04R
WINNEMUCCA     MOSUNNY   43  30  60 NW13      30.13R
WENDOVER       CLOUDY    42  28  57 NW24G32   29.96R
$$

NVZ035-037-172100-
CENTRAL NEVADA

CITY           SKY/WX    TMP DP  RH WIND       PRES   REMARKS
ELY            CLOUDY    36  27  69 NW23G31   29.99R
EUREKA           N/A     37  23  56 W17       30.06
$$

NVZ013-014-172100-
SOUTH CENTRAL NEVADA

CITY           SKY/WX    TMP DP  RH WIND       PRES   REMARKS
TONOPAH        SUNNY     49  26  41 NW32G44   30.01R
$$

NVZ017-020-022-172100-
SOUTHERN NEVADA

CITY           SKY/WX    TMP DP  RH WIND       PRES   REMARKS
LAS VEGAS      PTSUNNY   75  41  29 SW23G37   29.85S
N. LAS VEGAS   SUNNY     72  40  31 W17G25    29.85R
NELLIS AFB     NOT AVBL
HENDERSON      MOSUNNY   73  42  32 SW28G36   29.89F
MERCURY        SUNNY     70  41  34 SW22G30   29.90F
$$



USA.gov is the U.S. government's official web portal to all federal, state and local government web resources and services.